Temperature
19 19 19 19 19 19 19 19 19 19 19 19 19 19 18 18 18 18 18 18 18 18 18 18 18 18 18 18 18 18 18 18 18 18 18 18 18 17 17 17 17 17 17
19 19 19 19 19 19 19 19 19 19 19 19 19 18 18 18 18 18 18 18 18 18 18 18 18 18 18 18 18 18 18 18 18 18 18 17 17 17 17 17 17 17 17
19 19 19 19 19 19 19 19 19 19 19 19 19 19 18 18 18 18 18 18 18 18 18 18 18 18 18 18 18 18 18 17 18 17 17 17 17 17 17 17 17 17 17
20 19 19 19 19 19 19 19 19 19 19 19 19 19 19 19 19 18 18 18 18 18 18 18 18 18 18 18 18 17 17 17 17 17 17 17 17 17 17 17 17 17 17
20 20 19 19 19 19 19 19 19 19 19 19 19 19 19 19 19 18 18 18 18 18 18 18 18 18 18 18 17 17 17 17 17 17 17 17 17 17 17 17 17 17 17
20 20 20 19 19 19 19 19 19 19 19 19 19 19 19 18 19 18 18 18 18 18 18 18 18 18 18 18 17 17 17 17 17 17 17 17 17 17 17 17 17 17 17
20 20 20 20 20 19 19 19 19 19 19 19 19 19 19 19 19 19 18 18 18 18 18 18 18 18 18 18 18 17 17 17 17 17 17 17 17 18 18 17 17 17 17
20 20 20 20 20 19 19 19 19 19 19 19 19 19 19 19 19 19 19 18 18 18 18 18 18 18 18 18 18 17 17 17 17 18 17 17 18 18 18 17 17 17 17
20 20 20 20 20 19 19 19 19 19 19 19 19 19 19 19 19 19 19 19 19 18 18 18 18 18 18 18 18 17 17 17 18 18 18 18 18 18 18 18 17 17 17
20 20 20 20 20 19 19 19 19 19 19 19 19 19 19 18 18 18 18 19 19 19 18 18 18 18 18 18 18 18 18 17 17 18 18 18 18 18 18 18 18 17 17
20 20 20 20 19 19 19 19 19 19 19 18 18 18 18 18 18 18 18 18 18 18 18 18 18 18 18 18 18 18 18 18 18 18 18 18 18 18 18 18 18 17 17
20 20 20 20 19 19 19 19 19 19 18 18 18 18 18 18 18 18 18 18 18 18 18 18 18 18 18 18 18 18 18 18 18 18 18 18 18 18 18 18 18 18 17
20 20 20 19 19 19 19 19 19 19 19 18 18 18 18 18 18 18 18 18 18 18 18 18 18 18 18 18 18 18 18 18 18 18 18 18 18 18 18 18 18 18 18
20 20 20 19 19 19 19 19 19 19 19 19 18 18 18 18 18 18 18 18 18 18 18 18 18 18 18 18 18 18 18 18 18 18 18 18 18 18 18 18 18 18 18
20 20 20 20 19 19 19 19 19 19 19 19 18 18 18 18 18 18 18 18 18 18 18 18 18 18 18 18 18 18 18 18 18 18 18 18 18 18 18 18 18 18 18
21 20 20 20 20 20 19 19 19 19 19 19 18 18 18 18 18 18 18 18 18 18 18 18 18 18 18 18 18 18 18 18 18 18 18 18 18 18 18 18 18 18 18
21 21 21 20 20 20 19 19 19 19 19 19 19 19 19 18 18 18 18 18 18 18 18 18 18 18 18 18 18 18 18 18 18 18 18 18 18 18 18 18 18 18 18
21 21 21 20 20 20 20 19 19 19 19 19 19 19 19 18 18 18 18 18 18 18 18 18 18 18 18 18 18 18 18 18 18 18 18 18 18 18 18 18 18 18 17
22 21 21 20 20 20 20 19 19 19 19 19 19 19 19 18 18 18 18 18 18 18 18 18 18 18 18 18 18 18 18 18 18 18 18 18 18 18 18 18 18 18 17
22 21 21 21 20 20 20 19 19 19 19 19 19 19 19 18 18 18 18 18 18 18 18 18 18 18 18 18 18 18 18 18 18 18 18 18 18 18 18 18 18 18 18
22 21 21 21 20 20 20 20 19 19 19 19 19 19 18 18 18 18 18 18 18 18 18 18 18 18 18 18 18 18 18 18 18 18 18 18 18 18 18 18 18 18 17
22 22 21 21 21 20 20 20 20 19 19 19 19 19 19 19 18 18 18 18 18 18 18 18 18 18 18 18 18 18 18 18 18 18 18 18 18 17 17 17 17 17 17
22 22 22 21 21 20 20 20 19 19 19 19 18 18 19 19 18 18 18 18 18 18 18 18 18 18 18 18 18 18 17 17 17 17 18 18 17 17 17 17 17 17 17
23 22 22 22 21 21 20 20 20 19 19 19 19 19 18 18 18 18 18 18 18 18 18 18 18 18 17 17 17 17 17 17 17 17 17 17 17 17 17 17 17 17 17
23 23 22 22 21 21 20 20 20 19 19 19 19 19 18 18 18 18 18 18 18 18 18 18 18 17 17 17 17 17 17 17 17 17 16 17 17 17 16 16 16 16 17
23 23 22 22 21 21 20 20 20 19 19 19 19 19 18 18 18 18 18 18 18 18 18 17 17 17 17 17 17 17 17 17 17 17 16 16 16 16 16 16 16 16 16
Wind_Speed
3 6 12 14 15 16 16 17 18 18 18 19 19 19 19 19 19 18 18 18 18 18 18 18 18 19 18 18 19 19 19 20 19 19 19 19 19 19 20 19 18 17 19
7 9 13 14 15 15 16 16 17 17 18 18 18 18 18 18 18 18 17 17 17 17 17 17 18 18 18 18 18 18 19 19 19 19 18 18 18 18 18 18 17 16 18
9 11 13 14 15 15 15 15 16 16 17 17 16 16 17 17 17 17 17 17 17 17 17 17 17 17 16 16 17 17 18 18 18 17 16 14 15 17 18 18 18 18 17
11 11 13 15 15 15 15 15 15 15 16 16 15 16 16 16 16 16 16 16 16 16 16 16 16 16 15 15 15 15 16 15 16 15 12 12 13 16 17 17 17 17 16
10 12 14 15 15 15 14 14 14 14 14 14 14 14 15 15 15 15 15 15 15 15 15 15 15 14 14 14 14 13 13 13 13 11 11 12 13 16 16 17 16 16 16
9 11 14 15 15 14 14 13 13 13 13 13 13 13 14 14 15 15 15 14 14 14 14 14 14 13 12 12 12 11 10 11 11 10 12 12 12 15 15 15 15 15 15
8 10 13 15 14 14 13 13 12 12 12 12 12 12 12 13 14 14 13 13 13 13 13 12 12 11 10 10 9 9 9 9 9 10 11 12 13 15 15 14 14 14 14
11 10 12 14 14 13 13 12 12 11 11 11 11 11 11 11 11 12 12 12 11 11 11 11 10 9 9 8 7 7 8 8 9 11 10 11 14 15 14 14 14 13 13
11 10 9 12 12 12 12 11 11 11 10 10 10 9 10 10 10 10 10 10 10 10 9 9 8 8 7 6 6 5 6 8 8 10 10 10 14 15 14 14 13 13 12
9 7 7 9 10 10 10 11 10 10 9 9 8 8 8 8 8 8 8 8 8 8 8 7 7 6 5 5 4 4 5 6 7 9 9 11 14 14 14 14 13 13 12
9 6 6 7 8 9 9 9 10 9 8 8 7 7 6 5 4 5 6 7 7 7 6 5 4 4 3 2 3 3 3 4 5 7 9 13 15 15 14 14 13 13 13
10 9 7 7 8 8 7 8 7 7 7 6 6 6 5 5 4 5 5 6 6 5 5 5 4 3 3 2 2 2 3 5 5 6 9 15 16 15 14 14 13 13 13
11 10 8 7 8 7 5 7 5 5 6 6 7 7 6 5 4 4 4 4 5 5 4 4 5 4 4 4 4 3 5 5 6 6 10 16 17 16 15 14 14 14 13
10 9 8 7 6 6 6 5 5 5 4 5 6 7 6 4 3 4 4 5 5 4 4 5 4 4 4 5 5 4 5 6 7 8 11 17 17 17 16 16 15 15 14
9 8 8 8 7 5 4 3 4 4 5 6 6 7 7 4 3 4 4 5 6 6 5 4 4 3 3 4 5 5 5 6 8 10 11 16 18 17 17 16 16 16 16
9 9 7 8 7 6 4 3 2 3 4 4 5 6 7 6 4 3 2 3 4 5 6 5 4 3 3 3 3 4 5 7 9 10 11 14 17 18 18 18 17 17 17
10 9 8 8 6 6 4 3 3 3 3 3 3 4 5 5 4 3 2 2 3 5 5 4 3 2 2 2 3 3 3 5 6 8 10 11 13 16 18 18 18 18 18
10 9 8 8 6 5 4 3 2 2 2 2 3 3 3 3 4 2 2 2 3 3 2 2 2 1 2 1 2 2 2 2 5 7 9 10 11 12 15 18 18 18 18
11 9 7 7 7 6 4 3 3 2 2 2 3 3 3 3 3 2 1 1 1 1 1 2 1 2 2 2 2 2 2 2 3 5 6 8 9 10 11 13 16 15 15
10 9 8 7 6 5 3 2 1 0 0 1 2 3 3 2 1 2 1 1 1 1 0 1 1 2 2 3 3 2 2 3 2 3 4 4 6 8 9 8 9 9 11
9 9 8 8 6 4 3 2 2 1 1 0 1 3 3 2 2 2 0 0 1 1 2 2 2 2 2 1 0 1 2 1 1 2 2 2 2 5 6 7 6 6 7
11 10 9 9 7 6 4 3 3 2 1 1 1 1 2 2 2 2 1 1 1 1 1 2 2 1 2 1 2 1 1 3 2 1 1 3 2 2 3 5 5 6 6
11 11 10 9 8 7 5 3 2 2 2 1 1 1 1 1 2 1 1 1 1 1 2 2 2 3 2 1 2 3 2 2 1 2 1 1 1 1 2 2 3 4 5
12 11 9 9 8 6 6 5 4 3 2 2 1 1 1 1 1 1 1 1 1 1 1 2 2 2 2 2 1 2 3 4 2 1 2 1 0 1 1 1 1 2 3
12 11 9 8 7 6 6 6 5 3 3 2 1 1 0 2 2 1 0 0 1 1 1 1 1 1 2 2 2 1 1 1 2 2 1 2 2 2 1 1 1 1 1
10 9 9 9 7 6 6 6 5 5 4 3 1 1 0 1 2 2 1 0 1 1 1 1 1 1 1 1 2 2 2 2 2 3 3 1 0 1 2 2 2 2 3
Wind_Direction
113 112 105 100 95 92 90 87 86 85 85 86 87 87 89 91 93 95 98 101 103 103 104 105 106 105 106 107 108 109 109 110 109 109 109 109 110 113 113 113 113 114 117
137 117 108 104 101 98 95 92 91 90 89 89 89 89 91 92 93 95 97 99 103 105 105 105 106 106 106 107 109 110 110 110 110 109 108 108 110 114 115 115 115 120 119
122 117 112 109 107 104 101 98 96 95 94 92 92 92 93 95 95 95 97 100 102 105 106 106 107 107 107 107 109 111 111 111 110 108 105 104 108 113 116 118 119 120 121
125 121 117 113 111 108 105 104 102 100 99 97 96 96 96 98 97 97 99 103 105 107 108 108 108 108 108 108 110 112 113 114 114 112 106 107 112 116 118 119 120 122 124
120 122 122 118 114 112 110 108 107 104 103 101 100 99 100 101 101 101 104 106 106 108 109 110 109 110 110 110 111 112 113 112 115 112 111 110 116 122 122 123 124 125 126
123 127 126 122 119 117 115 114 112 109 107 106 104 103 103 104 105 106 107 109 108 110 110 110 110 111 110 110 112 113 114 112 110 114 118 122 126 128 127 127 128 129 130
131 131 130 127 124 122 119 118 116 115 113 111 109 108 106 106 108 110 111 112 112 113 114 115 115 115 113 114 114 114 116 114 114 121 127 132 136 134 133 133 133 134 135
138 136 135 132 129 126 125 123 121 119 118 116 114 113 113 112 112 115 115 117 118 119 119 119 120 121 119 117 112 109 116 117 114 129 135 141 143 141 140 139 139 140 140
139 139 138 137 135 134 133 132 130 127 124 124 123 121 121 120 120 120 121 123 124 127 128 128 127 125 124 123 118 111 120 125 120 135 145 150 152 149 147 147 148 147 147
141 146 146 145 144 141 143 144 142 139 137 137 136 133 129 126 126 129 130 133 135 138 141 142 142 142 139 139 137 129 128 130 129 147 155 160 160 157 155 155 156 156 157
150 159 158 157 157 156 156 155 153 153 155 157 157 153 143 131 133 141 147 147 149 152 156 161 165 172 172 177 178 160 153 155 146 155 167 169 169 168 165 164 165 166 166
165 175 172 172 173 173 168 162 169 171 174 179 180 172 163 165 175 170 176 175 171 172 180 193 208 221 220 235 250 233 190 175 164 167 177 177 176 175 173 173 172 173 174
167 170 171 172 174 175 170 166 180 186 185 192 193 184 181 183 194 194 189 194 196 201 212 225 236 241 239 241 249 234 200 187 180 183 185 183 182 181 181 181 181 181 181
157 162 165 159 158 165 162 168 176 185 191 195 197 185 172 167 185 192 200 207 206 211 218 227 232 235 240 243 237 223 204 193 186 185 187 188 187 188 188 189 190 190 190
148 152 156 153 149 147 145 167 163 175 184 188 184 184 176 166 172 184 206 209 212 211 213 222 224 231 239 242 231 210 200 191 184 181 188 192 192 194 196 196 197 198 198
152 154 153 149 149 143 143 153 155 162 168 169 172 175 171 171 174 175 189 202 209 206 206 209 210 211 227 233 240 220 200 187 187 185 189 196 199 201 204 203 203 203 204
158 158 158 157 150 142 144 151 148 167 160 158 172 171 168 173 176 171 174 205 220 209 199 203 213 214 231 234 239 233 206 192 188 194 192 196 203 209 211 211 210 209 209
157 158 164 159 148 147 147 142 140 163 163 168 168 167 171 182 184 171 180 226 232 204 184 198 210 206 242 239 243 248 220 194 194 200 200 203 207 212 217 219 217 214 212
160 158 159 151 155 161 159 156 151 168 176 177 160 159 173 177 177 174 195 232 204 144 175 208 190 195 222 240 245 245 230 218 215 211 206 208 209 212 212 219 219 216 218
161 159 157 153 162 164 157 148 127 119 223 157 158 169 173 176 176 168 189 207 159 139 178 197 213 226 221 229 256 266 250 238 218 215 211 206 208 208 206 208 210 216 218
161 161 161 156 167 161 151 157 164 192 204 170 163 173 177 183 184 158 159 164 175 179 220 216 216 239 249 202 172 316 324 313 251 222 201 177 200 213 200 200 201 205 219
172 170 165 164 173 174 173 174 168 167 174 170 155 174 200 203 195 176 169 209 223 211 251 247 215 209 249 187 167 154 326 345 351 277 215 183 203 210 189 200 200 203 214
177 177 176 175 176 179 172 149 127 82 51 47 47 280 272 215 213 217 204 191 229 213 239 255 222 199 226 251 188 166 172 226 288 333 313 216 186 175 182 163 183 211 214
187 181 175 176 177 177 164 157 157 158 170 193 199 218 285 252 230 244 209 208 223 226 248 262 233 206 188 230 257 218 196 176 177 277 337 347 16 149 168 154 163 203 203
181 176 175 171 173 171 164 167 163 163 170 165 149 119 338 326 318 311 317 273 261 247 250 271 285 211 188 202 214 224 232 213 185 185 252 331 13 39 74 98 97 111 147
172 171 169 169 173 169 164 163 163 162 156 142 129 128 344 320 313 337 26 322 287 288 272 266 283 255 215 214 217 205 194 192 200 186 206 226 353 10 44 50 57 62 80
Height
1537 1536 1535 1534 1533 1533 1532 1531 1531 1530 1530 1529 1529 1529 1529 1529 1529 1530 1530 1531 1532 1533 1534 1534 1535 1536 1537 1538 1540 1541 1542 1542 1543 1544 1545 1545 1546 1546 1547 1549 1550 1551 1552
1537 1537 1537 1536 1535 1535 1534 1534 1533 1533 1533 1532 1532 1532 1532 1532 1532 1533 1533 1534 1534 1535 1536 1537 1538 1539 1540 1541 1542 1543 1544 1545 1546 1547 1548 1548 1549 1549 1550 1551 1552 1553 1555
1538 1538 1538 1538 1537 1537 1537 1537 1536 1536 1535 1535 1535 1535 1534 1535 1535 1536 1536 1536 1537 1538 1539 1540 1541 1542 1543 1544 1545 1546 1547 1548 1549 1549 1550 1551 1552 1552 1553 1553 1554 1555 1557
1539 1539 1539 1539 1539 1539 1539 1539 1539 1538 1538 1538 1538 1538 1537 1537 1538 1538 1539 1539 1540 1540 1541 1542 1543 1544 1545 1546 1547 1549 1550 1550 1551 1552 1552 1553 1554 1555 1555 1556 1557 1558 1559
1541 1541 1541 1541 1541 1541 1541 1541 1541 1541 1541 1541 1541 1541 1540 1540 1540 1541 1541 1542 1542 1543 1544 1545 1546 1547 1548 1549 1550 1551 1552 1553 1553 1554 1555 1555 1556 1557 1557 1558 1559 1560 1561
1542 1543 1543 1543 1543 1543 1543 1543 1543 1543 1543 1543 1543 1543 1543 1543 1543 1543 1544 1544 1545 1546 1546 1547 1548 1549 1550 1551 1552 1553 1554 1555 1555 1556 1557 1557 1558 1559 1559 1560 1561 1562 1563
1543 1544 1544 1545 1545 1545 1545 1545 1545 1545 1546 1546 1546 1546 1546 1546 1546 1546 1546 1547 1547 1548 1549 1550 1551 1551 1552 1553 1554 1555 1556 1557 1557 1558 1559 1559 1560 1560 1561 1561 1562 1563 1564
1545 1545 1546 1547 1547 1547 1547 1547 1547 1548 1548 1548 1548 1548 1548 1548 1548 1549 1549 1549 1549 1550 1551 1552 1553 1553 1554 1555 1556 1557 1558 1558 1559 1559 1560 1561 1561 1562 1562 1563 1564 1564 1565
1547 1547 1548 1548 1548 1549 1549 1549 1549 1550 1550 1550 1550 1550 1550 1550 1551 1551 1551 1551 1551 1552 1553 1554 1555 1555 1556 1557 1558 1559 1559 1560 1560 1561 1561 1562 1563 1563 1564 1564 1565 1565 1566
1548 1549 1549 1550 1550 1551 1551 1551 1551 1552 1552 1552 1552 1552 1552 1553 1553 1553 1553 1553 1553 1554 1555 1555 1556 1557 1558 1559 1559 1560 1561 1561 1562 1562 1562 1563 1564 1564 1565 1565 1566 1566 1567
1549 1550 1551 1551 1552 1552 1552 1553 1553 1553 1553 1553 1554 1554 1554 1554 1554 1554 1555 1555 1555 1555 1556 1557 1558 1558 1559 1560 1561 1561 1562 1562 1563 1563 1563 1564 1564 1565 1565 1566 1566 1567 1567
1550 1551 1552 1552 1553 1553 1554 1554 1554 1554 1555 1555 1555 1555 1556 1556 1556 1556 1556 1556 1556 1557 1557 1558 1558 1559 1560 1561 1562 1562 1562 1563 1563 1564 1564 1564 1565 1565 1565 1566 1566 1567 1568
1550 1551 1552 1553 1554 1554 1554 1555 1555 1555 1556 1556 1556 1556 1557 1556 1557 1557 1557 1557 1557 1557 1558 1558 1559 1560 1560 1561 1562 1562 1563 1563 1563 1563 1563 1564 1564 1565 1565 1566 1566 1567 1567
1550 1552 1553 1554 1554 1555 1555 1556 1556 1556 1556 1556 1557 1557 1557 1557 1557 1557 1557 1557 1557 1558 1558 1559 1559 1560 1560 1561 1562 1562 1562 1562 1563 1563 1563 1564 1564 1565 1565 1566 1566 1566 1567
1551 1552 1553 1554 1555 1555 1556 1556 1557 1557 1557 1557 1557 1557 1557 1557 1557 1557 1557 1557 1557 1557 1558 1559 1559 1560 1560 1561 1561 1561 1561 1562 1562 1562 1563 1563 1563 1564 1564 1565 1565 1566 1566
1551 1552 1553 1554 1555 1556 1556 1556 1557 1557 1557 1557 1557 1557 1557 1557 1557 1557 1557 1557 1557 1557 1558 1558 1559 1559 1560 1560 1560 1561 1561 1561 1561 1562 1562 1562 1562 1563 1563 1563 1564 1564 1565
1551 1552 1553 1554 1555 1556 1556 1556 1557 1557 1557 1557 1557 1557 1557 1557 1557 1557 1556 1557 1557 1557 1557 1557 1558 1558 1558 1559 1559 1559 1560 1560 1560 1560 1561 1561 1561 1561 1561 1562 1562 1562 1563
1550 1552 1553 1554 1555 1555 1556 1556 1556 1556 1556 1556 1556 1556 1556 1556 1556 1556 1556 1556 1555 1555 1556 1556 1556 1557 1557 1557 1557 1557 1558 1558 1558 1558 1559 1559 1559 1560 1560 1560 1560 1560 1561
1549 1551 1551 1553 1554 1555 1555 1555 1555 1555 1555 1555 1555 1555 1555 1555 1555 1555 1554 1554 1554 1554 1554 1554 1555 1555 1555 1555 1555 1555 1555 1555 1555 1556 1556 1557 1557 1557 1557 1557 1558 1558 1558
1548 1550 1551 1552 1553 1554 1554 1554 1554 1554 1554 1554 1554 1554 1554 1554 1553 1553 1553 1552 1552 1552 1553 1553 1553 1553 1552 1552 1552 1553 1553 1553 1553 1553 1554 1554 1554 1554 1554 1555 1554 1555 1555
1547 1548 1549 1550 1551 1552 1552 1553 1553 1553 1553 1553 1553 1553 1553 1553 1552 1552 1551 1551 1550 1550 1551 1551 1551 1551 1550 1550 1550 1550 1550 1550 1550 1551 1551 1551 1551 1551 1552 1552 1552 1552 1553
1546 1547 1548 1549 1550 1551 1552 1552 1552 1552 1552 1552 1552 1552 1552 1552 1551 1551 1550 1549 1549 1549 1549 1549 1548 1548 1548 1548 1548 1548 1548 1549 1548 1548 1548 1548 1548 1549 1548 1549 1549 1550 1550
1543 1545 1546 1548 1548 1549 1550 1551 1551 1552 1551 1551 1551 1551 1551 1550 1550 1550 1549 1548 1548 1547 1547 1546 1546 1545 1545 1545 1546 1546 1546 1545 1545 1546 1546 1546 1546 1546 1546 1546 1547 1547 1548
1541 1543 1545 1546 1547 1548 1549 1550 1550 1550 1550 1550 1550 1550 1550 1549 1549 1548 1548 1547 1546 1546 1545 1544 1544 1543 1543 1542 1543 1543 1544 1543 1544 1543 1544 1544 1544 1544 1544 1544 1544 1545 1545
1540 1542 1544 1545 1546 1547 1548 1549 1549 1549 1549 1549 1549 1549 1549 1548 1548 1547 1546 1545 1545 1544 1543 1542 1541 1541 1540 1540 1540 1540 1540 1540 1541 1541 1541 1542 1542 1542 1541 1542 1542 1542 1543
1538 1541 1542 1544 1545 1546 1547 1548 1548 1548 1549 1549 1549 1548 1548 1547 1547 1546 1545 1544 1543 1542 1541 1540 1539 1539 1538 1538 1537 1537 1537 1537 1537 1538 1538 1538 1539 1540 1540 1540 1540 1540 1540